Location: LDNL
(36.4545°S, 141.6685°E)
Time: 02:31:07
(UTC+10:00)

RS-15 - Visible Passes

Search period start: 18 May 2022 00:00
Search period end: 28 May 2022 00:00
Orbit: 1881 x 2163 km, 64.8° (Epoch: 16 May)

Date Brightness Start Highest point End Pass type
(mag) Time Alt. Az. Time Alt. Az. Time Alt. Az.
18 May 7.8 19:37:50 10° SSW 19:48:42 65° SE 19:54:09 35° NE visible
18 May 9.1 21:51:08 10° SW 22:00:14 32° WNW 22:02:04 30° WNW visible
19 May 8.0 19:01:53 10° SSW 19:12:27 51° SE 19:21:23 16° ENE visible
19 May 8.7 21:14:32 10° SW 21:24:33 43° WNW 21:29:22 30° NNW visible
20 May 8.3 18:25:58 10° SSW 18:36:05 40° SE 18:46:19 10° ENE visible
20 May 8.3 20:38:12 10° SW 20:48:46 58° WNW 20:59:41 10° N visible
21 May 8.5 17:50:05 10° SSW 17:59:32 32° SE 18:09:05 10° ENE visible
21 May 8.0 20:02:00 10° SSW 20:12:53 76° WNW 20:24:07 10° NNE visible
21 May 9.9 22:18:35 10° WSW 22:23:21 14° W 22:28:12 10° NW visible
22 May 7.8 19:25:55 10° SSW 19:36:54 85° ESE 19:48:13 10° NNE visible
22 May 9.6 21:40:26 10° WSW 21:47:52 21° WNW 21:55:29 10° NW visible
23 May 7.9 18:49:55 10° SSW 19:00:49 68° ESE 19:11:59 10° NE visible
23 May 9.3 21:03:20 10° SW 21:12:16 30° WNW 21:21:29 10° NNW visible
24 May 8.0 18:13:57 10° SSW 18:24:36 53° SE 18:35:26 10° NE visible
24 May 8.9 20:26:42 10° SW 20:36:36 42° WNW 20:46:50 10° N visible
25 May 8.3 17:38:02 10° SSW 17:48:13 42° SE 17:58:34 10° ENE visible
25 May 8.5 19:50:18 10° SW 20:00:50 56° WNW 20:11:42 10° N visible
26 May 8.1 19:14:05 10° SSW 19:24:58 73° WNW 19:36:11 10° NNE visible
26 May 10.1 21:31:11 10° WSW 21:35:21 13° W 21:39:35 10° WNW visible
27 May 7.9 18:38:00 10° SSW 18:49:00 88° ESE 19:00:20 10° NNE visible
27 May 9.9 20:52:45 10° WSW 20:59:53 20° W 21:07:12 10° NW visible
